Weather History for Pinedale, WY

Change the Weather History Date:

Saturday, February 23, 2013

  Actual Average (KBPI) Record (KBPI)
Temperature  
Mean Temperature 18 °F 17 °F  
Max Temperature 26 °F 32 °F 44 °F (1995)
Min Temperature 10 °F 3 °F -19 °F (1993)
Degree Days  
Heating Degree Days 47 48  
Month to date heating degree days 1179  
Since 1 July heating degree days 7292  
Cooling Degree Days 0 0  
Month to date cooling degree days 0  
Year to date cooling degree days 0  
Moisture  
Dew Point 14 °F    
Average Humidity 84    
Maximum Humidity 100    
Minimum Humidity 68    
Precipitation  
Precipitation 0.00 in 0.01 in 0.01 in (2001)
Month to date precipitation 0.29  
Year to date precipitation 0.60  
Sea Level Pressure  
Sea Level Pressure 29.71 in    
Wind  
Wind Speed 6 mph (WNW)    
Max Wind Speed 24 mph    
Max Gust Speed 31 mph    
Visibility 8 miles    
Events Snow    
T = Trace of Precipitation, MM = Missing Value Source: NWS Daily Summary

Daily Weather History Graph

Daily Weather History Graph

Search for Another Location

Airport:

Trip Planner

Search our weather history database for the weather conditions in past years. The results will help you decide how hot, cold, wet, or windy it might be!

Date:

Astronomy

Feb. 23, 2013 Rise Set
Actual Time 7:04 AM MST 6:01 PM MST
Civil Twilight 6:35 AM MST 6:30 PM MST
Nautical Twilight 6:02 AM MST 7:03 PM MST
Astronomical Twilight 5:29 AM MST 7:35 PM MST
Moon 4:14 PM MST (2/23) 5:30 AM MST (2/23)
Length of Visible Light 11h 54m
Length of Day
10h 57m
Waxing Gibbous, 95% of the Moon is Illuminated
Feb 23
Waxing Gibbous
Feb 25
Full
Mar 4
Last Quarter
Mar 11
New
Mar 19
First Quarter

Hourly Weather History & Observations

Time (MST) Temp. Windchill Dew Point Humidity Pressure Visibility Wind Dir Wind Speed Gust Speed Precip Events Conditions
12:15 AM 17.6 °F 9.3 °F 12.2 °F 79% 29.84 in 10.0 mi West 5.8 mph - N/A   Overcast
12:35 AM 15.8 °F 7.2 °F 12.2 °F 86% 29.83 in 10.0 mi WNW 5.8 mph - N/A   Mostly Cloudy
12:55 AM 14.0 °F 5.1 °F 10.4 °F 86% 29.83 in 10.0 mi WNW 5.8 mph - N/A   Scattered Clouds
1:15 AM 12.2 °F 2.9 °F 10.4 °F 92% 29.82 in 10.0 mi WNW 5.8 mph - N/A   Clear
1:35 AM 12.2 °F 6.1 °F 10.4 °F 92% 29.82 in 10.0 mi NW 3.5 mph - N/A   Clear
1:55 AM 12.2 °F 2.9 °F 8.6 °F 85% 29.81 in 10.0 mi WNW 5.8 mph - N/A   Clear
2:15 AM 14.0 °F 8.2 °F 12.2 °F 93% 29.80 in 10.0 mi West 3.5 mph - N/A   Clear
2:35 AM 12.2 °F 6.1 °F 8.6 °F 85% 29.80 in 10.0 mi East 3.5 mph - N/A   Mostly Cloudy
2:55 AM 10.4 °F 4.0 °F 10.4 °F 100% 29.79 in 10.0 mi NE 3.5 mph - N/A   Mostly Cloudy
3:15 AM 12.2 °F - 12.2 °F 100% 29.78 in 10.0 mi Calm Calm - N/A   Overcast
3:35 AM 12.2 °F - 10.4 °F 92% 29.77 in 10.0 mi Calm Calm - N/A   Overcast
3:55 AM 12.2 °F 4.3 °F 10.4 °F 92% 29.77 in 10.0 mi SE 4.6 mph - N/A   Overcast
4:15 AM 12.2 °F - 10.4 °F 92% 29.75 in 10.0 mi Calm Calm - N/A Snow Light Snow
4:35 AM 12.2 °F - 10.4 °F 92% 29.75 in 10.0 mi Calm Calm - N/A Snow Light Snow
4:55 AM 12.2 °F - 12.2 °F 100% 29.74 in 10.0 mi Calm Calm - N/A   Overcast
5:15 AM 12.2 °F - 12.2 °F 100% 29.75 in 10.0 mi Calm Calm - N/A Snow Light Snow
5:35 AM 12.2 °F - 12.2 °F 100% 29.74 in 10.0 mi Calm Calm - N/A Snow Light Snow
5:55 AM 12.2 °F - 12.2 °F 100% 29.73 in 5.0 mi Calm Calm - N/A Snow Light Snow
6:15 AM 12.2 °F - 12.2 °F 100% 29.74 in 5.0 mi Calm Calm - N/A Snow Light Snow
6:35 AM 14.0 °F - 12.2 °F 93% 29.73 in 7.0 mi Calm Calm - N/A Snow Light Snow
6:55 AM 14.0 °F - 12.2 °F 93% 29.71 in 5.0 mi Calm Calm - N/A Snow Light Snow
7:15 AM 12.2 °F - 12.2 °F 100% 29.71 in 5.0 mi Calm Calm - N/A Snow Light Snow
7:35 AM 12.2 °F 2.9 °F 12.2 °F 100% 29.69 in 7.0 mi ESE 5.8 mph - N/A Snow Light Snow
7:55 AM 12.2 °F - 12.2 °F 100% 29.70 in 10.0 mi Calm Calm - N/A   Mostly Cloudy
8:15 AM 14.0 °F - 12.2 °F 93% 29.70 in 10.0 mi Calm Calm - N/A   Scattered Clouds
8:35 AM 14.0 °F - 12.2 °F 93% 29.71 in 10.0 mi Calm Calm - N/A   Mostly Cloudy
8:55 AM 15.8 °F - 14.0 °F 93% 29.71 in 10.0 mi Calm Calm - N/A   Overcast
9:15 AM 17.6 °F 12.3 °F 14.0 °F 86% 29.71 in 10.0 mi ENE 3.5 mph - N/A Snow Light Snow
9:35 AM 19.4 °F 14.3 °F 15.8 °F 86% 29.69 in 4.0 mi East 3.5 mph - N/A Snow Light Snow
9:55 AM 19.4 °F 12.8 °F 17.6 °F 93% 29.69 in 5.0 mi East 4.6 mph - N/A Snow Light Snow
10:15 AM 21.2 °F 12.6 °F 17.6 °F 86% 29.69 in 10.0 mi East 6.9 mph - N/A Snow Light Snow
10:35 AM 21.2 °F 13.6 °F 17.6 °F 86% 29.67 in 3.0 mi ESE 5.8 mph - N/A Snow Light Snow
10:55 AM 23.0 °F 17.0 °F 17.6 °F 80% 29.67 in 10.0 mi ESE 4.6 mph - N/A   Overcast
11:15 AM 23.0 °F 18.4 °F 17.6 °F 80% 29.67 in 10.0 mi ESE 3.5 mph - N/A   Overcast
11:35 AM 23.0 °F 17.0 °F 17.6 °F 80% 29.67 in 10.0 mi East 4.6 mph - N/A Snow Light Snow
11:55 AM 23.0 °F 17.0 °F 19.4 °F 86% 29.65 in 1.5 mi ESE 4.6 mph - N/A Snow Light Snow
12:15 PM 23.0 °F - 17.6 °F 80% 29.65 in 5.0 mi Calm Calm - N/A Snow Light Snow
12:35 PM 26.6 °F - 17.6 °F 69% 29.64 in 10.0 mi Calm Calm - N/A   Mostly Cloudy
12:55 PM 24.8 °F - 17.6 °F 74% 29.64 in 5.0 mi Calm Calm - N/A Snow Light Snow
1:15 PM 24.8 °F - 19.4 °F 80% 29.63 in 1.2 mi Calm Calm - N/A Snow Light Snow
1:35 PM 24.8 °F - 19.4 °F 80% 29.61 in 1.0 mi Calm Calm - N/A Snow Light Snow
1:55 PM 24.8 °F 19.1 °F 19.4 °F 80% 29.61 in 4.0 mi ESE 4.6 mph - N/A Snow Light Snow
2:15 PM 24.8 °F 19.1 °F 21.2 °F 86% 29.61 in 5.0 mi SSE 4.6 mph - N/A Snow Light Snow
2:35 PM 24.8 °F 16.1 °F 19.4 °F 80% 29.61 in 10.0 mi SSE 8.1 mph - N/A   Overcast
2:55 PM 24.8 °F 16.9 °F 19.4 °F 80% 29.61 in 10.0 mi South 6.9 mph - N/A   Overcast
3:15 PM 24.8 °F 17.9 °F 19.4 °F 80% 29.61 in 10.0 mi SSE 5.8 mph - N/A   Overcast
3:35 PM 26.6 °F 21.2 °F 21.2 °F 80% 29.62 in 10.0 mi SW 4.6 mph - N/A   Overcast
3:55 PM 24.8 °F 14.6 °F 19.4 °F 80% 29.62 in 7.0 mi WSW 10.4 mph - N/A   Overcast
4:15 PM 24.8 °F 13.4 °F 21.2 °F 86% 29.62 in 2.0 mi West 12.7 mph - N/A Snow Light Snow
4:35 PM 23.0 °F 12.4 °F 19.4 °F 86% 29.63 in 2.5 mi West 10.4 mph - N/A Snow Light Snow
4:55 PM 23.0 °F 11.7 °F 17.6 °F 80% 29.64 in 4.0 mi West 11.5 mph - N/A Snow Light Snow
5:15 PM 23.0 °F 10.6 °F 14.0 °F 68% 29.65 in 10.0 mi West 13.8 mph 19.6 mph N/A   Overcast
5:55 PM 19.4 °F 5.5 °F 12.2 °F 74% 29.66 in 10.0 mi WNW 15.0 mph - N/A   Scattered Clouds
6:15 PM 19.4 °F 7.9 °F 12.2 °F 74% 29.67 in 10.0 mi WNW 10.4 mph - N/A   Clear
6:35 PM 17.6 °F 4.3 °F 10.4 °F 73% 29.67 in 10.0 mi West 12.7 mph 18.4 mph N/A   Scattered Clouds
6:55 PM 17.6 °F 3.7 °F 10.4 °F 73% 29.69 in 10.0 mi WNW 13.8 mph - N/A   Scattered Clouds
7:15 PM 17.6 °F 5.0 °F 12.2 °F 79% 29.69 in 10.0 mi WNW 11.5 mph 17.3 mph N/A   Mostly Cloudy
7:35 PM 17.6 °F 5.0 °F 12.2 °F 79% 29.69 in 10.0 mi WNW 11.5 mph - N/A   Overcast
7:55 PM 19.4 °F 7.2 °F 12.2 °F 74% 29.71 in 10.0 mi WNW 11.5 mph - N/A   Overcast
8:15 PM 19.4 °F 5.5 °F 12.2 °F 74% 29.71 in 10.0 mi WNW 15.0 mph - N/A   Overcast
8:35 PM 19.4 °F 3.2 °F 12.2 °F 74% 29.71 in 10.0 mi WNW 20.7 mph 25.3 mph N/A   Overcast
8:55 PM 19.4 °F 2.5 °F 12.2 °F 74% 29.71 in 10.0 mi WNW 23.0 mph 26.5 mph N/A   Overcast
9:15 PM 19.4 °F 2.5 °F 12.2 °F 74% 29.72 in 10.0 mi WNW 23.0 mph 26.5 mph N/A   Overcast
9:35 PM 19.4 °F 2.1 °F 12.2 °F 74% 29.72 in 10.0 mi WNW 24.2 mph 31.1 mph N/A Snow Light Snow
9:55 PM 19.4 °F 2.1 °F 12.2 °F 74% 29.72 in 10.0 mi WNW 24.2 mph 29.9 mph N/A   Overcast
10:15 PM 19.4 °F 3.6 °F 12.2 °F 74% 29.72 in 10.0 mi WNW 19.6 mph 27.6 mph N/A   Overcast
10:35 PM 19.4 °F 2.8 °F 12.2 °F 74% 29.73 in 10.0 mi WNW 21.9 mph 27.6 mph N/A   Overcast
10:55 PM 19.4 °F 2.8 °F 12.2 °F 74% 29.73 in 10.0 mi NW 21.9 mph 29.9 mph N/A   Overcast
11:15 PM 19.4 °F 2.8 °F 12.2 °F 74% 29.73 in 10.0 mi NW 21.9 mph 27.6 mph N/A   Overcast
11:35 PM 19.4 °F 2.8 °F 12.2 °F 74% 29.73 in 10.0 mi NW 21.9 mph 28.8 mph N/A   Overcast
11:55 PM 19.4 °F 3.6 °F 10.4 °F 68% 29.74 in 10.0 mi WNW 19.6 mph 25.3 mph N/A   Overcast